GW2898 Weather Reports


Display with metric or nautical units.
time (UTC)temp
F
wind
direction
speed
MPH
gust
MPH
rain 1hr
in
rain 24hr
in
rain mn
in
humidity
%
barometer
mb
20260503201709 93 136 1.0 7.0 0.00 0.00 0.00 22 1012.2
20260503201206 93 74 3.0 7.0 0.00 0.00 0.00 21 1012.3
20260503200702 93 186 3.0 11.0 0.00 0.00 0.00 20 1012.3
20260503200159 93 180 2.0 8.0 0.00 0.00 0.00 19 1012.5
20260503195656 93 188 4.0 5.0 0.00 0.00 0.00 22 1012.7
20260503195153 93 206 5.0 10.0 0.00 0.00 0.00 20 1012.6
20260503194650 92 161 0.0 6.0 0.00 0.00 0.00 22 1012.7
20260503194145 93 153 7.0 10.0 0.00 0.00 0.00 19 1012.8
20260503193642 91 142 1.0 11.0 0.00 0.00 0.00 22 1012.8
20260503193137 92 167 6.0 7.0 0.00 0.00 0.00 20 1013.0
20260503192633 92 164 3.0 7.0 0.00 0.00 0.00 21 1013.0
20260503192129 92 203 5.0 8.0 0.00 0.00 0.00 21 1013.2
20260503191626 91 209 4.0 7.0 0.00 0.00 0.00 23 1013.4
20260503191123 91 162 5.0 11.0 0.00 0.00 0.00 20 1013.4
20260503190620 92 222 3.0 9.0 0.00 0.00 0.00 22 1013.4
20260503190117 91 227 5.0 12.0 0.00 0.00 0.00 24 1013.4
20260503185614 92 202 6.0 7.0 0.00 0.00 0.00 24 1013.2
20260503185109 91 228 3.0 5.0 0.00 0.00 0.00 26 1013.5
20260503184604 91 94 2.0 5.0 0.00 0.00 0.00 26 1013.4
20260503184101 91 108 3.0 6.0 0.00 0.00 0.00 23 1013.7
20260503183557 90 234 2.0 7.0 0.00 0.00 0.00 27 1013.8
20260503183054 89 205 2.0 7.0 0.00 0.00 0.00 25 1013.7
20260503182552 89 78 4.0 5.0 0.00 0.00 0.00 24 1014.0
20260503182050 89 43 1.0 6.0 0.00 0.00 0.00 25 1014.2
20260503181547 89 203 0.0 9.0 0.00 0.00 0.00 26 1014.1
20260503181043 89 148 4.0 10.0 0.00 0.00 0.00 25 1014.1
20260503180541 89 199 2.0 8.0 0.00 0.00 0.00 27 1014.2
20260503180038 89 196 2.0 5.0 0.00 0.00 0.00 27 1014.2
20260503175535 89 151 4.0 5.0 0.00 0.00 0.00 25 1014.4
20260503175032 88 178 2.0 7.0 0.00 0.00 0.00 27 1014.1
20260503174524 88 41 3.0 8.0 0.00 0.00 0.00 26 1014.4
20260503174020 87 164 3.0 6.0 0.00 0.00 0.00 26 1014.4
20260503173515 87 60 3.0 9.0 0.00 0.00 0.00 26 1014.5
20260503173011 88 135 3.0 9.0 0.00 0.00 0.00 27 1014.4
20260503172509 87 150 2.0 6.0 0.00 0.00 0.00 28 1014.6
20260503172006 86 229 2.0 10.0 0.00 0.00 0.00 30 1014.4
20260503171503 87 135 3.0 7.0 0.00 0.00 0.00 27 1014.5
20260503171000 87 112 0.0 3.0 0.00 0.00 0.00 29 1014.6
20260503170456 86 81 3.0 6.0 0.00 0.00 0.00 30 1014.6
20260503150843 79 91 4.0 8.0 0.00 0.00 0.00 34 1014.6
20260503150339 79 103 3.0 5.0 0.00 0.00 0.00 35 1014.6
20260503140304 75 98 3.0 3.0 0.00 0.00 0.00 37 1014.5
20260503131232 74 85 1.0 3.0 0.00 0.00 0.00 38 1013.7
20260503130730 74 81 2.0 4.0 0.00 0.00 0.00 38 1013.8
20260503130227 74 76 4.0 5.0 0.00 0.00 0.00 37 1014.0
20260503120153 71 116 0.0 2.0 0.00 0.00 0.00 40 1013.6
20260503110620 68 45 0.0 2.0 0.00 0.00 0.00 45 1013.7
20260503110118 68 38 0.0 1.0 0.00 0.00 0.00 46 1013.5
20260503090450 70 16 0.0 2.0 0.00 0.00 0.00 40 1013.4
20260503081411 70 129 0.0 0.0 0.00 0.00 0.00 41 1014.0
20260503080908 70 6 0.0 2.0 0.00 0.00 0.00 42 1013.8
20260503080404 70 60 0.0 2.0 0.00 0.00 0.00 40 1013.9
20260503072840 70 154 0.0 2.0 0.00 0.00 0.00 40 1014.0
20260503072337 71 89 0.0 0.0 0.00 0.00 0.00 39 1013.9
20260503071834 71 15 0.0 2.0 0.00 0.00 0.00 38 1013.8
20260503071331 71 45 0.0 2.0 0.00 0.00 0.00 38 1014.0
20260503070827 71 124 0.0 1.0 0.00 0.00 0.00 38 1013.8
20260503070320 71 147 0.0 1.0 0.00 0.00 0.00 38 1013.8
20260503060244 72 31 0.0 2.0 0.00 0.00 0.00 34 1013.6
20260503054731 73 6 1.0 2.0 0.00 0.00 0.00 35 1013.5
20260503054228 73 10 0.0 2.0 0.00 0.00 0.00 35 1013.6
20260503053726 73 117 0.0 2.0 0.00 0.00 0.00 33 1013.8
20260503053225 72 98 0.0 2.0 0.00 0.00 0.00 37 1013.5
20260503052721 72 88 1.0 2.0 0.00 0.00 0.00 39 1013.1
20260503052217 72 37 0.0 1.0 0.00 0.00 0.00 37 1013.4
20260503051713 73 117 0.0 1.0 0.00 0.00 0.00 37 1013.5
20260503051211 72 50 0.0 1.0 0.00 0.00 0.00 37 1013.3
20260503050707 72 62 0.0 0.0 0.00 0.00 0.00 37 1013.4
20260503050204 73 44 0.0 1.0 0.00 0.00 0.00 37 1013.3
20260503045701 73 41 1.0 1.0 0.00 0.00 0.00 36 1013.2
20260503045159 72 5 0.0 1.0 0.00 0.00 0.00 36 1012.8
20260503044655 72 65 0.0 1.0 0.00 0.00 0.00 36 1013.3
20260503044152 72 21 1.0 2.0 0.00 0.00 0.00 36 1013.2
20260503043649 73 129 0.0 1.0 0.00 0.00 0.00 35 1013.0
20260503043146 73 41 0.0 1.0 0.00 0.00 0.00 34 1012.8
20260503042642 74 38 0.0 1.0 0.00 0.00 0.00 33 1012.7
20260503042138 74 61 1.0 2.0 0.00 0.00 0.00 33 1012.7
20260503041635 74 61 1.0 2.0 0.00 0.00 0.00 33 1012.7
20260503041133 73 25 0.0 2.0 0.00 0.00 0.00 34 1012.5
20260503040630 72 62 0.0 1.0 0.00 0.00 0.00 35 1012.4
20260503040128 73 129 0.0 0.0 0.00 0.00 0.00 36 1012.4
20260503035624 73 147 0.0 1.0 0.00 0.00 0.00 35 1012.5
20260503035122 74 50 0.0 1.0 0.00 0.00 0.00 33 1012.1
20260503034619 75 129 0.0 0.0 0.00 0.00 0.00 32 1012.1
20260503034116 75 96 1.0 2.0 0.00 0.00 0.00 32 1012.3
20260503033613 75 83 1.0 1.0 0.00 0.00 0.00 31 1012.3
20260503033111 75 89 0.0 0.0 0.00 0.00 0.00 31 1012.0
20260503032609 76 22 0.0 1.0 0.00 0.00 0.00 30 1012.1
20260503032107 76 50 0.0 1.0 0.00 0.00 0.00 30 1012.1
20260503031604 77 50 0.0 1.0 0.00 0.00 0.00 29 1012.2
20260503031102 77 104 0.0 1.0 0.00 0.00 0.00 28 1011.8
20260503030557 78 100 1.0 1.0 0.00 0.00 0.00 30 1012.0
20260503030055 78 33 0.0 1.0 0.00 0.00 0.00 28 1011.7
20260503025551 78 77 0.0 1.0 0.00 0.00 0.00 29 1011.9
20260503025049 78 75 0.0 1.0 0.00 0.00 0.00 27 1011.9
20260503024545 78 49 0.0 0.0 0.00 0.00 0.00 26 1012.0
20260503024043 79 87 0.0 2.0 0.00 0.00 0.00 26 1011.9
20260503023539 80 66 0.0 1.0 0.00 0.00 0.00 26 1011.7
20260503023037 80 89 0.0 0.0 0.00 0.00 0.00 26 1011.9
20260503022532 81 62 0.0 0.0 0.00 0.00 0.00 25 1011.8
20260503022027 81 62 0.0 0.0 0.00 0.00 0.00 24 1011.7
20260503021524 82 62 0.0 1.0 0.00 0.00 0.00 23 1011.9
20260503021021 83 117 0.0 1.0 0.00 0.00 0.00 23 1011.7
20260503020518 83 104 0.0 0.0 0.00 0.00 0.00 22 1011.8
20260503020015 83 104 0.0 0.0 0.00 0.00 0.00 22 1011.9
20260503015512 84 104 0.0 0.0 0.00 0.00 0.00 22 1011.8
20260503015009 85 104 0.0 0.0 0.00 0.00 0.00 21 1011.8
20260503014505 86 109 0.0 1.0 0.00 0.00 0.00 20 1011.9
20260503014003 87 0 0.0 0.0 0.00 0.00 0.00 20 1011.8
20260503013500 88 337 1.0 2.0 0.00 0.00 0.00 17 1011.5
20260503012957 88 89 0.0 2.0 0.00 0.00 0.00 17 1011.9
20260503012455 88 96 2.0 2.0 0.00 0.00 0.00 17 1011.9
20260503011950 89 164 0.0 2.0 0.00 0.00 0.00 16 1011.8
20260503011448 89 173 0.0 3.0 0.00 0.00 0.00 16 1011.9
20260503010945 89 95 2.0 6.0 0.00 0.00 0.00 16 1011.9
20260503010441 91 62 0.0 1.0 0.00 0.00 0.00 17 1011.7
20260503005939 92 310 0.0 2.0 0.00 0.00 0.00 15 1011.9
20260503005436 91 156 2.0 3.0 0.00 0.00 0.00 16 1012.0
20260503004933 91 177 0.0 3.0 0.00 0.00 0.00 17 1012.1
20260503004429 90 224 0.0 2.0 0.00 0.00 0.00 16 1012.1
20260503003927 90 115 1.0 2.0 0.00 0.00 0.00 17 1012.2
20260503003424 91 65 3.0 4.0 0.00 0.00 0.00 16 1012.0
20260503002921 92 164 0.0 3.0 0.00 0.00 0.00 17 1012.1
20260503002418 92 259 1.0 5.0 0.00 0.00 0.00 16 1012.1
20260503001914 91 82 2.0 5.0 0.00 0.00 0.00 15 1012.3
20260503001411 91 68 4.0 7.0 0.00 0.00 0.00 15 1012.2
20260503000909 91 98 4.0 6.0 0.00 0.00 0.00 16 1012.2
20260503000407 92 44 6.0 8.0 0.00 0.00 0.00 14 1012.2
20260502235903 93 76 2.0 4.0 0.00 0.00 0.00 16 1012.4
20260502235359 92 93 1.0 3.0 0.00 0.00 0.00 16 1012.4
20260502234856 93 81 1.0 3.0 0.00 0.00 0.00 17 1012.4
20260502234353 94 200 1.0 3.0 0.00 0.00 0.00 16 1012.3
20260502233850 94 18 1.0 4.0 0.00 0.00 0.00 15 1012.3
20260502233346 93 325 1.0 3.0 0.00 0.00 0.00 17 1012.3
20260502232843 92 119 0.0 5.0 0.00 0.00 0.00 18 1012.4
20260502232339 92 69 4.0 11.0 0.00 0.00 0.00 15 1012.5
20260502231836 93 157 1.0 4.0 0.00 0.00 0.00 14 1012.6
20260502231334 92 230 3.0 9.0 0.00 0.00 0.00 16 1012.4
20260502230832 92 247 3.0 9.0 0.00 0.00 0.00 17 1012.6
20260502230330 93 245 2.0 3.0 0.00 0.00 0.00 21 1012.6
20260502225826 93 209 3.0 7.0 0.00 0.00 0.00 17 1012.6
20260502225322 94 161 3.0 8.0 0.00 0.00 0.00 18 1012.8
20260502224819 94 49 2.0 3.0 0.00 0.00 0.00 16 1012.8
20260502224310 92 320 3.0 6.0 0.00 0.00 0.00 17 1013.0
20260502223808 93 214 3.0 6.0 0.00 0.00 0.00 15 1013.2
20260502223306 93 176 0.0 5.0 0.00 0.00 0.00 19 1013.0
20260502222803 95 74 4.0 6.0 0.00 0.00 0.00 15 1013.1
20260502222300 92 359 2.0 5.0 0.00 0.00 0.00 15 1013.2
20260502221756 93 82 2.0 4.0 0.00 0.00 0.00 18 1013.5
20260502221252 93 249 2.0 4.0 0.00 0.00 0.00 20 1013.8
20260502220749 92 39 0.0 4.0 0.00 0.00 0.00 14 1013.4
20260502220245 92 14 3.0 7.0 0.00 0.00 0.00 15 1013.3
20260502215742 92 36 2.0 7.0 0.00 0.00 0.00 16 1013.6
20260502215239 92 131 2.0 12.0 0.00 0.00 0.00 16 1013.8
20260502214737 92 264 3.0 7.0 0.00 0.00 0.00 17 1013.9
20260502214235 93 231 2.0 3.0 0.00 0.00 0.00 16 1014.0
20260502213731 93 224 0.0 3.0 0.00 0.00 0.00 15 1014.1
20260502213228 91 223 5.0 9.0 0.00 0.00 0.00 17 1013.9
20260502212726 91 252 8.0 10.0 0.00 0.00 0.00 17 1014.2
20260502212224 92 181 2.0 5.0 0.00 0.00 0.00 15 1014.3
20260502211720 92 252 2.0 6.0 0.00 0.00 0.00 17 1014.2
20260502211217 92 111 2.0 2.0 0.00 0.00 0.00 15 1014.4
20260502210714 91 251 4.0 12.0 0.00 0.00 0.00 16 1014.2
20260502210211 91 240 2.0 7.0 0.00 0.00 0.00 17 1014.4
20260502205708 92 224 7.0 10.0 0.00 0.00 0.00 17 1014.6
20260502205159 92 87 3.0 9.0 0.00 0.00 0.00 18 1014.6
20260502204655 91 80 6.0 12.0 0.00 0.00 0.00 19 1014.7
20260502204153 91 219 3.0 6.0 0.00 0.00 0.00 17 1014.5
20260502203650 91 31 3.0 7.0 0.00 0.00 0.00 17 1015.0
20260502203149 91 253 3.0 12.0 0.00 0.00 0.00 19 1015.1
20260502202643 90 311 1.0 5.0 0.00 0.00 0.00 22 1015.0
20260502202142 92 82 0.0 3.0 0.00 0.00 0.00 21 1015.0